Вернуться в каталог

STARLINK-33722

АктивенСвязьVLEO
NORAD 63571·PAYLOAD·🇺🇸 United States

Запущен Apr 14, 2025 с Cape Canaveral Space Force Station

Loading…

Ближайшие Пролёты (ближайшие 24 часа)

TLE

СвежийSource: CelesTrak SupGP

Эпоха: Sep 15, 2026, 02:20 UTC

1 63571C 25076C   26258.09770833  .00036627  00000+0  13265-2 0  2582
2 63571  43.0031 331.9005 0001550 268.1066 295.8357 15.27564234    15

Отслеживайте STARLINK-33722 в реальном времени с AllMySat

Download on the App Store